FW0689 Weather Reports


Display with metric or nautical units.
time (UTC)temp
F
wind
direction
speed
MPH
gust
MPH
rain 1hr
in
rain 24hr
in
rain mn
in
humidity
%
barometer
mb
20260506084829 48 21 0.0 0.0 0.00 0.00 0.00 40 1013.0
20260506083831 48 20 0.0 0.0 0.00 0.00 0.00 40 1013.2
20260506080929 48 45 0.0 0.0 0.00 0.00 0.00 40 1013.1
20260506073031 47 27 0.0 0.0 0.00 0.00 0.00 40 1012.9
20260506072129 47 33 0.0 0.0 0.00 0.00 0.00 39 1012.9
20260506071131 47 51 0.0 0.0 0.00 0.00 0.00 40 1012.9
20260506070228 47 37 0.0 0.0 0.00 0.00 0.00 40 1012.9
20260506062329 47 20 0.0 0.0 0.00 0.00 0.00 40 1012.6
20260506061330 47 42 0.0 0.0 0.00 0.00 0.00 40 1012.5
20260506060345 47 10 0.0 0.0 0.00 0.00 0.00 40 1012.3
20260506043631 48 12 0.0 0.0 0.00 0.00 0.00 40 1012.3
20260506042632 48 1 0.0 0.0 0.00 0.00 0.00 40 1012.2
20260506041631 48 2 0.0 0.0 0.00 0.00 0.00 40 1012.2
20260506040629 48 359 0.0 0.0 0.00 0.00 0.00 40 1012.3
20260506035629 48 1 0.0 0.0 0.00 0.00 0.00 40 1012.3
20260506034728 48 4 0.0 0.0 0.00 0.00 0.00 40 1012.3
20260506033729 48 353 0.0 0.0 0.00 0.00 0.00 40 1012.4
20260506032730 48 353 0.0 0.0 0.00 0.00 0.00 40 1012.5
20260506031729 48 357 0.0 0.0 0.00 0.00 0.00 40 1012.5
20260506030730 48 350 0.0 0.0 0.00 0.00 0.00 40 1012.7
20260506025829 48 356 0.0 0.0 0.00 0.00 0.00 40 1012.5
20260506024831 48 343 0.0 0.0 0.00 0.00 0.00 40 1012.6
20260506023832 48 7 0.0 0.0 0.00 0.00 0.00 40 1012.6
20260506022830 48 355 0.0 0.0 0.00 0.00 0.00 40 1012.7
20260506020832 48 353 0.0 0.0 0.00 0.00 0.00 40 1013.0
20260506015829 48 358 0.0 0.0 0.00 0.00 0.00 40 1013.0
20260506013847 48 353 0.0 0.0 0.00 0.00 0.00 40 1013.1
20260506012931 48 3 0.0 0.0 0.00 0.00 0.00 40 1013.1
20260506011945 47 2 0.0 0.0 0.00 0.00 0.00 40 1013.3
20260506010929 48 352 0.0 0.0 0.00 0.00 0.00 40 1013.2
20260506005930 48 10 0.0 0.0 0.00 0.00 0.00 40 1013.4
20260506003929 48 10 0.0 0.0 0.00 0.00 0.00 40 1013.7
20260506002929 48 14 0.0 0.0 0.00 0.00 0.00 40 1013.6
20260506001929 48 6 0.0 0.0 0.00 0.00 0.00 40 1013.6
20260506000845 48 20 0.0 0.0 0.00 0.00 0.00 40 1013.7
20260505235930 48 1 0.0 0.0 0.00 0.00 0.00 40 1013.8
20260505235029 48 31 0.0 0.0 0.00 0.00 0.00 40 1013.9
20260505234029 48 17 0.0 0.0 0.00 0.00 0.00 40 1013.9
20260505233031 48 17 0.0 0.0 0.00 0.00 0.00 40 1014.0
20260505232029 48 13 0.0 0.0 0.00 0.00 0.00 40 1014.0
20260505231030 48 7 0.0 0.0 0.00 0.00 0.00 40 1014.1
20260505230030 48 20 0.0 0.0 0.00 0.00 0.00 40 1014.2
20260505224046 48 27 0.0 0.0 0.00 0.00 0.00 40 1014.2
20260505223130 48 5 0.0 0.0 0.00 0.00 0.00 40 1014.4
20260505220240 48 11 0.0 0.0 0.00 0.00 0.00 40 1014.5
20260505215326 49 12 0.0 0.0 0.00 0.00 0.00 40 1014.6
20260505214325 49 19 0.0 0.0 0.00 0.00 0.00 40 1014.6
20260505213326 48 9 0.0 0.0 0.00 0.00 0.00 40 1014.6
20260505212325 49 18 0.0 0.0 0.00 0.00 0.00 40 1014.7
20260505211425 49 17 0.0 0.0 0.00 0.00 0.00 40 1014.6
20260505210426 49 13 0.0 0.0 0.00 0.00 0.00 40 1014.8
20260505203427 49 5 0.0 0.0 0.00 0.00 0.00 40 1014.8
20260505202426 49 356 0.0 0.0 0.00 0.00 0.00 40 1014.9
20260505194627 50 10 0.0 0.0 0.00 0.00 0.00 39 1014.8
20260505193725 50 360 0.0 0.0 0.00 0.00 0.00 39 1014.9
20260505192824 50 1 0.0 0.0 0.00 0.00 0.00 39 1014.7
20260505191826 50 353 0.0 0.0 0.00 0.00 0.00 39 1014.8
20260505190826 50 5 0.0 0.0 0.00 0.00 0.00 39 1014.6
20260505184825 51 16 0.0 0.0 0.00 0.00 0.00 39 1014.5
20260505183825 51 7 0.0 0.0 0.00 0.00 0.00 39 1014.4
20260505182825 51 9 0.0 0.0 0.00 0.00 0.00 39 1014.3
20260505181826 51 2 0.0 0.0 0.00 0.00 0.00 39 1014.4
20260505175826 51 353 0.0 0.0 0.00 0.00 0.00 39 1014.5
20260505174925 51 357 0.0 0.0 0.00 0.00 0.00 39 1014.5
20260505173926 52 1 0.0 0.0 0.00 0.00 0.00 39 1014.5
20260505172927 52 11 0.0 0.0 0.00 0.00 0.00 39 1014.6
20260505171925 52 10 0.0 0.0 0.00 0.00 0.00 39 1014.5
20260505170926 52 355 0.0 0.0 0.00 0.00 0.00 39 1014.5
20260505170025 52 358 0.0 0.0 0.00 0.00 0.00 39 1014.6
20260505165124 52 24 0.0 0.0 0.00 0.00 0.00 39 1014.7
20260505163224 52 8 0.0 0.0 0.00 0.00 0.00 39 1014.8
20260505161226 52 12 0.0 0.0 0.00 0.00 0.00 38 1014.8
20260505160226 52 354 0.0 0.0 0.00 0.00 0.00 38 1014.8
20260505153325 52 358 0.0 0.0 0.00 0.00 0.00 39 1015.1
20260505152425 53 2 0.0 0.0 0.00 0.00 0.00 39 1015.1
20260505151426 53 16 0.0 0.0 0.00 0.00 0.00 39 1015.1
20260505150424 53 2 0.0 0.0 0.00 0.00 0.00 39 1015.1
20260505140425 53 17 0.0 0.0 0.00 0.00 0.00 39 1015.4
20260505124526 52 8 0.0 0.0 0.00 0.00 0.00 39 1016.0
20260505123525 52 48 0.0 0.0 0.00 0.00 0.00 39 1016.0
20260505122525 53 49 0.0 0.0 0.00 0.00 0.00 39 1016.0
20260505121624 53 17 0.0 0.0 0.00 0.00 0.00 39 1016.1
20260505120627 53 359 0.0 0.0 0.00 0.00 0.00 39 1016.1
20260505115642 53 22 0.0 0.0 0.00 0.00 0.00 39 1016.1
20260505114640 53 7 0.0 0.0 0.00 0.00 0.00 39 1016.1
20260505113624 53 9 0.0 0.0 0.00 0.00 0.00 39 1016.1
20260505112625 53 27 0.0 0.0 0.00 0.00 0.00 38 1016.1
20260505112526 53 9 0.0 0.0 0.00 0.00 0.00 39 1016.1
20260505110526 52 22 0.0 0.0 0.00 0.00 0.00 39 1016.2
20260505101625 52 21 0.0 0.0 0.00 0.00 0.00 39 1016.7
20260505100626 51 30 0.0 0.0 0.00 0.00 0.00 39 1016.5
20260505095626 51 39 0.0 0.0 0.00 0.00 0.00 39 1016.6
20260505094626 51 30 0.0 0.0 0.00 0.00 0.00 39 1016.7
20260505093626 51 21 0.0 0.0 0.00 0.00 0.00 39 1016.6
20260505092724 51 17 0.0 0.0 0.00 0.00 0.00 39 1016.7
20260505090726 50 11 0.0 0.0 0.00 0.00 0.00 38 1016.7
20260505085725 50 25 0.0 0.0 0.00 0.00 0.00 39 1016.7